Location: Guadanolo
(41.9167°N, 12.9333°E)
Time: 23:07:28
(UTC+00:00)

Cosmos 407 Rocket - Pass Details

Date: 16 September 2019
Orbit: 744 x 786 km, 74.0° (Epoch: 14 October)

Event Time Altitude Azimuth Distance (km) Brightness Sun altitude
Rises 19:27:26 0° 340° (NNW) 3,202 7.4 -24.1°
Reaches altitude 10° 19:29:48 10° 341° (NNW) 2,271 6.5 -24.5°
Maximum altitude 19:34:57 88° 68° (ENE) 751 3.3 -25.3°
Enters shadow 19:35:14 80° 148° (SSE) 760 3.3 -25.4°
